SCP
1 1 1 0 0 0 0 0 0 0 0 0 0 0 0 0 0 0 0 0 0 0 0 0 0 0 0 0 0 0 0 0 0 0 0 0 0 0
1 0 0 0 0 0 0 0 0 0 0 0 0 0 0 0 0 0 0 0 0 0 0 0 0 0 0 0 0 0 0 0 0 0 0 0 0 0
0 0 0 0 0 0 0 0 0 0 0 0 0 0 0 0 0 0 0 0 0 0 0 0 0 0 0 0 0 0 0 0 0 0 0 0 0 0
0 0 0 0 0 0 0 0 0 0 0 0 0 0 0 0 0 0 0 0 0 0 0 0 0 0 0 0 0 0 0 0 0 0 0 0 0 0
0 0 0 0 0 0 0 0 0 0 0 0 0 0 0 0 0 0 0 0 0 0 0 0 0 0 0 0 0 0 0 0 0 0 0 0 0 0
0 0 0 0 0 0 0 0 0 0 0 0 0 0 0 0 0 0 0 0 0 0 0 0 0 0 0 0 0 0 0 0 0 0 0 0 0 0
0 0 0 0 0 0 0 0 0 0 0 0 0 0 0 0 0 0 0 0 0 0 0 0 0 0 0 0 0 0 0 0 0 0 0 0 0 0
0 0 0 0 0 0 0 0 0 0 0 0 0 0 0 0 0 0 0 0 0 0 0 0 0 0 0 0 0 0 0 0 0 0 0 0 0 0
0 0 0 0 0 0 0 0 0 0 0 0 0 0 0 0 0 0 0 0 0 0 0 0 0 0 0 0 0 0 0 0 0 0 0 0 0 0
0 0 0 0 0 0 0 0 0 0 0 0 0 0 0 0 0 0 0 0 0 0 0 0 0 0 0 0 0 0 0 0 0 0 0 0 0 0
0 0 0 0 0 0 0 0 0 0 0 0 0 0 0 0 0 0 0 0 0 0 0 0 0 0 0 0 0 0 0 0 0 0 0 0 0 0
0 0 0 0 0 0 0 0 0 0 0 0 0 0 0 0 0 0 0 0 0 0 0 0 0 0 0 0 0 0 0 0 0 0 0 0 0 0
0 0 0 0 0 0 0 0 0 0 0 0 0 0 0 0 0 0 0 0 0 0 0 0 0 0 0 0 0 0 0 0 0 0 0 0 0 0
0 0 0 0 0 0 0 0 0 0 0 0 0 0 0 0 0 0 0 0 0 0 0 0 0 0 0 0 0 0 0 0 0 0 0 0 0 0
0 0 0 0 0 0 0 0 0 0 0 0 0 0 0 0 0 0 0 0 0 0 0 0 0 0 0 0 0 0 0 0 0 0 0 0 0 0
0 0 0 0 0 0 0 0 0 0 0 0 0 0 0 0 0 0 0 0 0 0 0 0 0 0 0 0 0 0 0 0 0 0 0 0 0 0
0 0 0 0 0 0 0 0 0 0 0 0 0 0 0 0 0 0 0 0 0 0 0 0 0 0 0 0 0 0 0 0 0 0 0 0 0 0
0 0 0 0 0 0 0 0 0 0 0 0 0 0 0 0 0 0 0 0 0 0 0 0 0 0 0 0 0 0 0 0 0 0 0 0 0 0
0 0 0 0 0 0 0 0 0 0 0 0 0 0 0 0 0 0 0 0 0 0 0 0 0 0 0 0 0 0 0 0 0 0 0 0 0 0
0 0 0 0 0 0 0 0 0 0 0 0 0 0 0 0 0 0 0 0 0 0 0 0 0 0 0 0 0 0 0 0 0 0 0 0 0 0
0 0 0 0 0 0 0 0 0 0 0 0 0 0 0 0 0 0 0 0 0 0 0 0 0 0 0 0 0 0 0 0 0 0 0 0 0 0
0 0 0 0 0 0 0 0 0 0 0 0 0 0 0 0 0 0 0 0 0 0 0 0 0 0 0 0 0 0 0 0 0 0 0 0 0 0
0 0 0 0 0 0 0 0 0 0 0 0 0 0 0 0 0 0 0 0 0 0 0 0 0 0 0 0 0 0 0 0 0 0 0 0 0 0
Wind_Speed
9 10 8 7 7 6 7 7 6 5 4 5 7 6 5 5 5 2 2 5 2 4 4 6 7 8 9 8 7 9 9 8 6 5 8 13 15 16
2 2 4 5 7 8 8 8 8 7 6 4 5 7 7 6 7 3 5 4 5 4 5 4 6 7 7 7 6 7 8 7 5 3 6 10 12 14
1 3 7 10 8 8 9 9 8 8 8 4 5 6 9 8 8 5 5 5 6 5 4 4 4 5 6 6 5 5 7 6 3 4 5 7 10 12
2 6 9 7 8 8 8 10 9 9 8 7 6 6 9 10 9 7 5 3 4 7 5 4 3 3 3 4 5 6 5 5 6 7 8 10 11 12
8 5 9 11 9 9 10 9 9 8 7 8 7 6 7 9 10 8 7 5 4 6 6 5 5 4 3 2 4 5 3 4 6 7 9 12 13 13
11 10 9 12 11 10 9 10 10 9 9 8 8 8 7 7 9 9 8 7 6 6 5 4 5 6 5 4 2 4 3 3 4 6 8 10 11 11
13 12 10 13 9 7 8 9 8 8 8 8 7 7 7 7 10 10 9 8 8 7 7 7 8 8 8 7 5 4 5 5 6 7 8 10 11 13
10 9 8 9 9 8 11 12 9 9 9 9 7 9 12 11 10 10 8 7 7 8 8 8 7 6 6 5 6 6 5 5 6 5 6 7 8 10
10 10 10 7 7 9 12 12 12 12 12 11 11 13 12 10 12 12 11 11 7 7 8 8 8 7 7 7 7 5 4 3 3 3 4 4 5 6
10 10 8 9 10 10 9 8 10 10 11 12 12 9 5 6 11 12 12 10 6 5 8 6 9 8 8 8 12 8 6 5 4 4 3 3 3 3
9 10 9 9 6 6 9 8 8 7 4 4 2 2 5 7 9 9 9 9 8 7 8 6 7 7 7 7 11 12 9 7 6 6 6 5 4 4
6 6 5 4 4 6 7 6 6 4 4 4 4 5 6 9 11 12 11 10 8 7 9 8 7 7 6 8 8 10 10 10 8 7 7 7 7 7
4 5 5 5 5 5 5 5 2 0 2 4 4 5 6 6 8 10 8 7 8 6 10 10 7 9 6 6 8 9 9 10 9 9 8 9 9 9
5 5 6 7 5 5 3 1 2 2 2 3 4 4 4 4 5 6 6 6 8 5 9 11 6 8 7 7 7 8 8 8 9 8 9 10 10 8
5 7 9 8 7 6 3 3 4 4 2 2 3 3 3 4 4 4 7 8 8 4 6 10 6 6 6 6 6 8 9 8 8 8 7 8 9 9
10 9 8 6 5 5 5 6 5 4 4 5 4 4 3 4 4 5 6 7 8 8 9 11 10 8 8 7 6 7 8 7 8 8 8 8 9 9
8 8 7 6 6 5 3 2 2 3 4 5 4 4 4 4 4 5 4 4 5 7 9 8 5 6 7 6 6 7 7 6 7 9 9 8 9 9
6 4 4 3 3 3 3 3 4 4 4 4 4 4 4 5 5 4 5 6 7 8 8 8 7 7 6 9 10 9 9 8 8 9 9 8 9 9
3 3 2 2 2 2 2 4 4 4 4 4 4 5 5 5 6 6 6 7 7 7 5 5 8 10 10 10 11 12 10 8 8 8 8 8 9 6
1 1 1 1 2 3 4 4 4 3 4 4 5 4 5 6 6 6 6 7 7 7 7 7 9 10 11 7 5 4 10 8 8 8 7 7 6 3
2 2 2 2 3 3 3 3 4 4 5 4 5 5 5 5 5 5 6 9 9 8 8 9 11 12 4 2 2 1 3 8 6 3 4 5 6 6
3 2 2 3 3 4 4 5 5 5 5 5 5 5 5 6 6 6 6 7 7 7 7 4 4 5 5 6 5 4 4 4 3 3 3 2 3 3
1 1 1 2 4 6 6 5 5 5 5 5 5 5 5 5 6 5 5 6 5 4 3 3 3 3 3 3 3 3 2 2 3 3 4 4 5 5
Wind_Direction
206 219 215 220 215 235 246 247 242 233 219 200 158 171 163 152 134 208 132 105 86 111 102 65 52 42 31 23 29 28 24 23 25 32 23 18 22 24
163 207 239 236 217 216 223 238 247 250 239 201 142 144 169 163 135 200 104 151 135 118 111 91 68 52 33 22 22 21 13 358 1 28 23 27 31 37
77 275 241 232 222 217 216 223 230 236 243 181 130 156 177 175 149 181 152 205 144 136 121 115 94 61 47 33 24 9 359 359 5 44 51 61 56 52
226 265 263 235 229 224 219 221 224 225 222 221 158 178 190 183 173 181 186 201 197 141 157 153 142 108 76 45 20 351 0 32 56 64 62 72 77 64
214 241 275 261 225 228 227 225 226 231 213 225 169 175 198 182 181 196 193 197 213 140 179 184 176 163 141 73 27 355 14 61 73 67 67 67 67 65
203 209 227 262 250 236 238 233 222 225 221 219 180 174 188 187 191 200 204 206 211 188 193 178 179 170 174 173 88 22 39 79 83 76 65 62 63 68
207 202 196 225 255 279 276 259 235 227 223 222 202 181 181 185 199 203 209 199 214 199 197 189 190 188 176 194 160 100 66 72 77 77 77 71 70 74
232 223 213 220 231 237 247 259 266 249 228 222 216 208 201 203 200 200 202 195 205 191 200 191 189 194 186 172 113 105 98 90 89 89 84 79 76 83
248 230 204 198 226 234 226 231 246 242 240 239 232 232 231 204 187 196 203 205 209 152 185 181 177 192 180 138 139 165 158 149 136 119 104 91 82 89
248 248 232 214 207 221 233 231 234 225 227 236 247 251 252 185 189 203 204 203 200 156 199 193 173 186 174 164 157 180 189 200 200 182 163 140 123 112
241 233 223 224 202 208 240 242 248 241 215 232 260 103 151 182 204 200 200 194 197 191 200 216 173 178 172 189 173 177 188 196 209 213 196 179 171 172
228 219 203 230 167 202 241 255 264 260 232 194 171 179 189 204 215 207 199 201 208 197 186 201 175 179 183 189 186 176 189 192 205 215 207 192 198 214
197 201 186 186 183 203 250 282 304 310 194 222 196 183 190 203 209 233 238 218 223 215 173 189 181 190 217 168 184 192 196 184 191 200 208 204 214 249
177 182 158 169 185 192 219 147 142 159 176 196 210 184 177 193 200 219 256 279 272 258 172 192 189 185 201 198 178 182 201 201 198 199 196 189 200 237
122 111 128 151 165 173 178 173 193 176 175 209 223 216 188 194 202 226 224 227 233 229 197 207 206 198 214 218 181 173 189 204 207 206 206 205 200 205
129 126 123 132 132 130 163 187 200 186 194 206 206 208 210 201 195 194 214 218 214 202 205 209 212 204 212 224 197 182 190 186 190 206 211 215 218 224
153 155 163 173 166 168 185 198 214 197 202 214 215 206 209 218 212 203 200 192 209 209 206 208 209 218 232 229 223 207 189 191 181 195 204 220 222 228
160 175 181 197 210 186 192 207 214 220 226 216 226 221 220 223 219 204 206 204 214 220 208 192 179 196 221 243 239 226 208 204 196 196 201 225 229 223
213 191 183 178 211 227 227 241 234 211 227 237 243 247 249 241 234 223 213 217 225 225 211 179 179 195 201 217 212 222 227 210 199 207 207 223 245 251
83 124 145 186 213 219 210 224 257 266 258 261 255 248 251 251 242 233 222 224 227 224 209 190 192 204 216 213 214 220 220 226 204 209 211 218 238 246
173 204 215 232 248 257 257 244 240 237 244 255 266 271 263 258 249 240 240 234 230 228 221 212 212 205 188 111 114 189 232 251 253 224 220 215 237 244
178 206 231 246 256 251 246 247 250 246 245 247 253 262 268 264 258 247 247 251 242 235 232 216 176 171 179 194 187 176 168 184 214 202 294 270 260 259
252 240 292 282 277 271 264 262 262 260 259 256 254 251 251 258 265 269 272 264 249 225 177 152 139 143 156 171 169 161 187 162 151 161 230 255 266 251